Private Wetterstation Sandau
Wetterdaten: Montag, 09.01.2012
Datum Zeit Temp. A. Feuchte A. Luftdruck Regen Wind Richtung Richtung Taupunkt Windchill
09.01.2012 00:02 4,3 C 90 % 1021,0 hPa 0,0 l/m 3,2 km/h (1 Bft) NW 315 2,8 C 4,3 C
09.01.2012 00:07 4,3 C 90 % 1021,2 hPa 0,0 l/m 1,8 km/h (1 Bft) NW 315 2,8 C 4,3 C
09.01.2012 00:12 4,3 C 90 % 1021,2 hPa 0,0 l/m 4,7 km/h (1 Bft) NW 315 2,8 C 3,4 C
09.01.2012 00:17 4,2 C 90 % 1021,1 hPa 0,0 l/m 3,2 km/h (1 Bft) N-NW 337 2,7 C 4,2 C
09.01.2012 00:22 4,2 C 90 % 1021,2 hPa 0,0 l/m 2,2 km/h (1 Bft) N-NO 22 2,7 C 4,2 C
09.01.2012 00:27 4,2 C 90 % 1021,2 hPa 0,0 l/m 3,6 km/h (1 Bft) NW 315 2,7 C 4,2 C
09.01.2012 00:32 4,2 C 90 % 1021,3 hPa 0,0 l/m 0,0 km/h (0 Bft) NW 315 2,7 C 4,2 C
09.01.2012 00:37 4,2 C 90 % 1021,3 hPa 0,0 l/m 2,5 km/h (1 Bft) N-NO 22 2,7 C 4,2 C
09.01.2012 00:42 4,2 C 90 % 1021,3 hPa 0,0 l/m 3,6 km/h (1 Bft) N-NW 337 2,7 C 4,2 C
09.01.2012 00:47 4,2 C 89 % 1021,5 hPa 0,0 l/m 4,0 km/h (1 Bft) NO 45 2,6 C 4,2 C
09.01.2012 00:52 4,3 C 89 % 1021,5 hPa 0,0 l/m 8,3 km/h (2 Bft) N 360 2,7 C 2,2 C
09.01.2012 00:57 4,2 C 89 % 1021,6 hPa 0,0 l/m 2,9 km/h (1 Bft) N 360 2,6 C 4,2 C
09.01.2012 01:02 4,2 C 88 % 1021,6 hPa 0,0 l/m 8,3 km/h (2 Bft) NO 45 2,4 C 2,1 C
09.01.2012 01:07 4,2 C 88 % 1021,8 hPa 0,0 l/m 10,1 km/h (2 Bft) N-NW 337 2,4 C 1,7 C
09.01.2012 01:12 4,1 C 88 % 1021,9 hPa 0,0 l/m 8,6 km/h (2 Bft) N 360 2,3 C 1,9 C
09.01.2012 01:17 4,1 C 87 % 1021,9 hPa 0,0 l/m 10,1 km/h (2 Bft) NO 45 2,1 C 1,6 C
09.01.2012 01:22 3,9 C 85 % 1022,1 hPa 0,0 l/m 7,6 km/h (2 Bft) N-NW 337 1,6 C 2,0 C
09.01.2012 01:27 3,8 C 85 % 1022,1 hPa 0,0 l/m 7,2 km/h (2 Bft) NO 45 1,5 C 2,0 C
09.01.2012 01:32 3,6 C 85 % 1021,9 hPa 0,0 l/m 4,7 km/h (1 Bft) N-NO 22 1,3 C 2,6 C
09.01.2012 01:37 3,6 C 85 % 1022,0 hPa 0,0 l/m 3,6 km/h (1 Bft) N-NO 22 1,3 C 3,6 C
09.01.2012 01:42 3,5 C 85 % 1022,1 hPa 0,0 l/m 2,5 km/h (1 Bft) N-NO 22 1,2 C 3,5 C
09.01.2012 01:47 3,4 C 85 % 1022,1 hPa 0,0 l/m 5,8 km/h (2 Bft) NO 45 1,1 C 2,0 C
09.01.2012 01:52 3,4 C 85 % 1022,2 hPa 0,0 l/m 1,8 km/h (1 Bft) NO 45 1,1 C 3,4 C
09.01.2012 01:57 3,4 C 85 % 1022,3 hPa 0,0 l/m 3,2 km/h (1 Bft) NO 45 1,1 C 3,4 C
09.01.2012 02:02 3,4 C 85 % 1022,4 hPa 0,0 l/m 0,0 km/h (0 Bft) NW 315 1,1 C 3,4 C
09.01.2012 02:07 3,4 C 86 % 1022,4 hPa 0,0 l/m 0,0 km/h (0 Bft) N 360 1,3 C 3,4 C
09.01.2012 02:12 3,4 C 86 % 1022,4 hPa 0,0 l/m 1,1 km/h (1 Bft) N 360 1,3 C 3,4 C
09.01.2012 02:17 3,4 C 86 % 1022,6 hPa 0,0 l/m 1,8 km/h (1 Bft) N-NW 337 1,3 C 3,4 C
09.01.2012 02:22 3,4 C 86 % 1022,7 hPa 0,0 l/m 4,3 km/h (1 Bft) NW 315 1,3 C 3,4 C
09.01.2012 02:27 3,4 C 86 % 1022,6 hPa 0,0 l/m 1,8 km/h (1 Bft) W-NW 292 1,3 C 3,4 C
09.01.2012 02:32 3,4 C 86 % 1022,7 hPa 0,0 l/m 2,9 km/h (1 Bft) W-NW 292 1,3 C 3,4 C
09.01.2012 02:37 3,4 C 86 % 1022,8 hPa 0,0 l/m 3,2 km/h (1 Bft) NW 315 1,3 C 3,4 C
09.01.2012 02:42 3,4 C 86 % 1022,8 hPa 0,0 l/m 6,1 km/h (2 Bft) NW 315 1,3 C 1,8 C
09.01.2012 02:47 3,4 C 87 % 1022,7 hPa 0,0 l/m 0,0 km/h (0 Bft) W-NW 292 1,4 C 3,4 C
09.01.2012 02:52 3,4 C 87 % 1022,7 hPa 0,0 l/m 2,2 km/h (1 Bft) NW 315 1,4 C 3,4 C
09.01.2012 02:57 3,4 C 87 % 1022,9 hPa 0,0 l/m 4,7 km/h (1 Bft) N-NW 337 1,4 C 2,4 C
09.01.2012 03:02 3,4 C 87 % 1022,7 hPa 0,0 l/m 0,0 km/h (0 Bft) NW 315 1,4 C 3,4 C
09.01.2012 03:07 3,4 C 87 % 1022,8 hPa 0,0 l/m 0,0 km/h (0 Bft) N 360 1,4 C 3,4 C
09.01.2012 03:12 3,4 C 87 % 1022,9 hPa 0,0 l/m 3,2 km/h (1 Bft) W-NW 292 1,4 C 3,4 C
09.01.2012 03:17 3,4 C 87 % 1023,0 hPa 0,0 l/m 4,0 km/h (1 Bft) W-NW 292 1,4 C 3,4 C
09.01.2012 03:22 3,4 C 87 % 1022,8 hPa 0,0 l/m 0,0 km/h (0 Bft) W-NW 292 1,4 C 3,4 C
09.01.2012 03:27 3,4 C 87 % 1022,8 hPa 0,0 l/m 3,2 km/h (1 Bft) W-NW 292 1,4 C 3,4 C
09.01.2012 03:32 3,4 C 87 % 1022,9 hPa 0,0 l/m 3,6 km/h (1 Bft) N-NW 337 1,4 C 3,4 C
09.01.2012 03:37 3,4 C 87 % 1022,9 hPa 0,0 l/m 0,0 km/h (0 Bft) NW 315 1,4 C 3,4 C
09.01.2012 03:42 3,4 C 87 % 1023,0 hPa 0,0 l/m 3,2 km/h (1 Bft) W-NW 292 1,4 C 3,4 C
09.01.2012 03:47 3,4 C 87 % 1023,0 hPa 0,0 l/m 4,7 km/h (1 Bft) W 270 1,4 C 2,4 C
09.01.2012 03:52 3,5 C 87 % 1023,1 hPa 0,0 l/m 2,2 km/h (1 Bft) N-NW 337 1,5 C 3,5 C
09.01.2012 03:57 3,5 C 87 % 1023,2 hPa 0,0 l/m 4,0 km/h (1 Bft) NW 315 1,5 C 3,5 C
09.01.2012 04:02 3,5 C 87 % 1023,3 hPa 0,0 l/m 5,4 km/h (1 Bft) W 270 1,5 C 2,2 C
09.01.2012 04:07 3,5 C 87 % 1023,2 hPa 0,0 l/m 3,2 km/h (1 Bft) W-NW 292 1,5 C 3,5 C
09.01.2012 04:12 3,6 C 87 % 1023,1 hPa 0,0 l/m 4,7 km/h (1 Bft) W-NW 292 1,6 C 2,6 C
09.01.2012 04:17 3,6 C 88 % 1023,2 hPa 0,0 l/m 12,2 km/h (2 Bft) W-NW 292 1,8 C 0,5 C
09.01.2012 04:22 3,6 C 88 % 1023,2 hPa 0,0 l/m 5,4 km/h (1 Bft) W-NW 292 1,8 C 2,3 C
09.01.2012 04:27 3,6 C 87 % 1023,4 hPa 0,0 l/m 9,7 km/h (2 Bft) W-NW 292 1,6 C 1,1 C
09.01.2012 04:32 3,6 C 87 % 1023,3 hPa 0,0 l/m 3,2 km/h (1 Bft) W-NW 292 1,6 C 3,6 C
09.01.2012 04:37 3,6 C 87 % 1023,3 hPa 0,0 l/m 5,8 km/h (2 Bft) NW 315 1,6 C 2,2 C
09.01.2012 04:42 3,6 C 87 % 1023,2 hPa 0,0 l/m 4,0 km/h (1 Bft) W-NW 292 1,6 C 3,6 C
09.01.2012 04:47 3,6 C 87 % 1023,4 hPa 0,0 l/m 7,9 km/h (2 Bft) W-NW 292 1,6 C 1,5 C
09.01.2012 04:52 3,5 C 87 % 1023,3 hPa 0,0 l/m 2,5 km/h (1 Bft) NW 315 1,5 C 3,5 C
09.01.2012 04:57 3,5 C 87 % 1023,5 hPa 0,0 l/m 0,0 km/h (0 Bft) W-NW 292 1,5 C 3,5 C
09.01.2012 05:02 3,5 C 87 % 1023,4 hPa 0,0 l/m 5,4 km/h (1 Bft) NW 315 1,5 C 2,2 C
09.01.2012 05:07 3,5 C 87 % 1023,4 hPa 0,0 l/m 3,2 km/h (1 Bft) NW 315 1,5 C 3,5 C
09.01.2012 05:12 3,4 C 87 % 1023,5 hPa 0,0 l/m 3,2 km/h (1 Bft) W-NW 292 1,4 C 3,4 C
09.01.2012 05:17 3,4 C 87 % 1023,3 hPa 0,0 l/m 4,7 km/h (1 Bft) NW 315 1,4 C 2,4 C
09.01.2012 05:22 3,4 C 87 % 1023,5 hPa 0,0 l/m 1,4 km/h (1 Bft) N-NW 337 1,4 C 3,4 C
09.01.2012 05:27 3,4 C 88 % 1023,4 hPa 0,0 l/m 1,4 km/h (1 Bft) N 360 1,6 C 3,4 C
09.01.2012 05:32 3,4 C 88 % 1023,5 hPa 0,0 l/m 0,0 km/h (0 Bft) N-NW 337 1,6 C 3,4 C
09.01.2012 05:37 3,4 C 88 % 1023,5 hPa 0,0 l/m 0,0 km/h (0 Bft) N-NW 337 1,6 C 3,4 C
09.01.2012 05:42 3,3 C 88 % 1023,6 hPa 0,0 l/m 0,0 km/h (0 Bft) N-NW 337 1,5 C 3,3 C
09.01.2012 05:47 3,3 C 88 % 1023,6 hPa 0,0 l/m 1,8 km/h (1 Bft) N-NO 22 1,5 C 3,3 C
09.01.2012 05:52 3,3 C 88 % 1023,6 hPa 0,0 l/m 1,4 km/h (1 Bft) N-NW 337 1,5 C 3,3 C
09.01.2012 05:57 3,3 C 88 % 1023,4 hPa 0,0 l/m 0,0 km/h (0 Bft) W-NW 292 1,5 C 3,3 C
09.01.2012 06:02 3,3 C 88 % 1023,4 hPa 0,0 l/m 3,2 km/h (1 Bft) N-NO 22 1,5 C 3,3 C
09.01.2012 06:07 3,3 C 88 % 1023,6 hPa 0,0 l/m 1,8 km/h (1 Bft) N-NW 337 1,5 C 3,3 C
09.01.2012 06:12 3,3 C 88 % 1023,6 hPa 0,0 l/m 0,0 km/h (0 Bft) N 360 1,5 C 3,3 C
09.01.2012 06:17 3,3 C 88 % 1023,7 hPa 0,0 l/m 3,2 km/h (1 Bft) N 360 1,5 C 3,3 C
09.01.2012 06:22 3,3 C 88 % 1023,6 hPa 0,0 l/m 6,1 km/h (2 Bft) NO 45 1,5 C 1,7 C
09.01.2012 06:27 3,3 C 88 % 1023,8 hPa 0,0 l/m 4,0 km/h (1 Bft) NO 45 1,5 C 3,3 C
09.01.2012 06:32 3,3 C 88 % 1023,8 hPa 0,0 l/m 0,0 km/h (0 Bft) W-NW 292 1,5 C 3,3 C
09.01.2012 06:37 3,3 C 88 % 1023,7 hPa 0,0 l/m 2,5 km/h (1 Bft) N 360 1,5 C 3,3 C
09.01.2012 06:42 3,2 C 87 % 1023,8 hPa 0,0 l/m 2,9 km/h (1 Bft) N-NO 22 1,2 C 3,2 C
09.01.2012 06:47 3,2 C 87 % 1023,7 hPa 0,0 l/m 1,4 km/h (1 Bft) NO 45 1,2 C 3,2 C
09.01.2012 06:52 3,2 C 87 % 1023,9 hPa 0,0 l/m 2,2 km/h (1 Bft) N-NO 22 1,2 C 3,2 C
09.01.2012 06:57 3,1 C 87 % 1023,9 hPa 0,0 l/m 0,0 km/h (0 Bft) NO 45 1,2 C 3,1 C
09.01.2012 07:02 3,1 C 87 % 1023,9 hPa 0,0 l/m 0,0 km/h (0 Bft) N-NW 337 1,2 C 3,1 C
09.01.2012 07:07 3,1 C 87 % 1023,8 hPa 0,0 l/m 0,0 km/h (0 Bft) N-NW 337 1,2 C 3,1 C
09.01.2012 07:12 3,1 C 87 % 1023,9 hPa 0,0 l/m 2,2 km/h (1 Bft) N-NW 337 1,2 C 3,1 C
09.01.2012 07:17 3,1 C 87 % 1024,0 hPa 0,0 l/m 0,0 km/h (0 Bft) W-NW 292 1,2 C 3,1 C
09.01.2012 07:22 3,1 C 87 % 1024,0 hPa 0,0 l/m 0,0 km/h (0 Bft) W 270 1,2 C 3,1 C
09.01.2012 07:27 3,1 C 88 % 1024,0 hPa 0,0 l/m 0,0 km/h (0 Bft) W 270 1,3 C 3,1 C
09.01.2012 07:32 3,1 C 88 % 1024,1 hPa 0,0 l/m 0,0 km/h (0 Bft) W 270 1,3 C 3,1 C
09.01.2012 07:37 3,1 C 88 % 1024,2 hPa 0,0 l/m 0,0 km/h (0 Bft) W 270 1,3 C 3,1 C
09.01.2012 07:42 3,1 C 88 % 1024,2 hPa 0,0 l/m 1,8 km/h (1 Bft) W 270 1,3 C 3,1 C
09.01.2012 07:47 3,1 C 88 % 1024,3 hPa 0,0 l/m 2,2 km/h (1 Bft) W-SW 247 1,3 C 3,1 C
09.01.2012 07:52 3,1 C 88 % 1024,3 hPa 0,0 l/m 3,6 km/h (1 Bft) W-NW 292 1,3 C 3,1 C
09.01.2012 07:57 3,0 C 88 % 1024,3 hPa 0,0 l/m 5,8 km/h (2 Bft) W-NW 292 1,2 C 1,5 C
09.01.2012 08:02 2,9 C 88 % 1024,4 hPa 0,0 l/m 7,2 km/h (2 Bft) W-NW 292 1,1 C 0,9 C
09.01.2012 08:07 2,9 C 88 % 1024,3 hPa 0,0 l/m 4,7 km/h (1 Bft) W-NW 292 1,1 C 1,8 C
09.01.2012 08:12 2,9 C 88 % 1024,4 hPa 0,0 l/m 5,0 km/h (1 Bft) W-NW 292 1,1 C 1,7 C
09.01.2012 08:17 2,8 C 88 % 1024,4 hPa 0,0 l/m 2,2 km/h (1 Bft) W 270 1,0 C 2,8 C
09.01.2012 08:22 2,8 C 88 % 1024,4 hPa 0,0 l/m 2,5 km/h (1 Bft) W-SW 247 1,0 C 2,8 C
09.01.2012 08:27 2,8 C 88 % 1024,4 hPa 0,0 l/m 2,5 km/h (1 Bft) W-SW 247 1,0 C 2,8 C
09.01.2012 08:32 2,8 C 88 % 1024,4 hPa 0,0 l/m 3,2 km/h (1 Bft) W-SW 247 1,0 C 2,8 C
09.01.2012 08:37 2,9 C 88 % 1024,3 hPa 0,0 l/m 4,7 km/h (1 Bft) W-SW 247 1,1 C 1,8 C
09.01.2012 08:42 2,9 C 88 % 1024,4 hPa 0,0 l/m 3,6 km/h (1 Bft) W-SW 247 1,1 C 2,9 C
09.01.2012 08:47 2,9 C 88 % 1024,3 hPa 0,0 l/m 2,2 km/h (1 Bft) W-SW 247 1,1 C 2,9 C
09.01.2012 08:52 2,9 C 88 % 1024,2 hPa 0,0 l/m 0,0 km/h (0 Bft) W 270 1,1 C 2,9 C
09.01.2012 08:57 2,9 C 88 % 1024,3 hPa 0,0 l/m 0,0 km/h (0 Bft) W 270 1,1 C 2,9 C
09.01.2012 09:02 2,9 C 88 % 1024,4 hPa 0,0 l/m 3,6 km/h (1 Bft) W-SW 247 1,1 C 2,9 C
09.01.2012 09:07 2,9 C 88 % 1024,4 hPa 0,0 l/m 2,9 km/h (1 Bft) W-SW 247 1,1 C 2,9 C
09.01.2012 09:12 2,9 C 88 % 1024,4 hPa 0,0 l/m 2,5 km/h (1 Bft) W-SW 247 1,1 C 2,9 C
09.01.2012 09:17 2,9 C 88 % 1024,5 hPa 0,0 l/m 2,9 km/h (1 Bft) W 270 1,1 C 2,9 C
09.01.2012 09:22 2,9 C 88 % 1024,5 hPa 0,0 l/m 3,6 km/h (1 Bft) W-SW 247 1,1 C 2,9 C
09.01.2012 09:27 2,9 C 88 % 1024,7 hPa 0,0 l/m 2,9 km/h (1 Bft) W 270 1,1 C 2,9 C
09.01.2012 09:32 2,9 C 88 % 1024,6 hPa 0,0 l/m 6,1 km/h (2 Bft) W-SW 247 1,1 C 1,3 C
09.01.2012 09:37 2,9 C 88 % 1024,7 hPa 0,0 l/m 2,5 km/h (1 Bft) S-SW 202 1,1 C 2,9 C
09.01.2012 09:42 2,9 C 88 % 1024,6 hPa 0,0 l/m 0,0 km/h (0 Bft) W 270 1,1 C 2,9 C
09.01.2012 09:47 3,0 C 88 % 1024,9 hPa 0,0 l/m 0,0 km/h (0 Bft) W 270 1,2 C 3,0 C
09.01.2012 09:52 3,1 C 88 % 1024,9 hPa 0,0 l/m 1,4 km/h (1 Bft) W 270 1,3 C 3,1 C
09.01.2012 09:57 3,1 C 88 % 1024,9 hPa 0,0 l/m 4,7 km/h (1 Bft) W 270 1,3 C 2,1 C
09.01.2012 10:02 3,1 C 88 % 1024,8 hPa 0,0 l/m 4,0 km/h (1 Bft) W 270 1,3 C 3,1 C
09.01.2012 10:07 3,2 C 88 % 1025,0 hPa 0,0 l/m 1,4 km/h (1 Bft) W 270 1,4 C 3,2 C
09.01.2012 10:12 3,3 C 88 % 1024,9 hPa 0,0 l/m 1,4 km/h (1 Bft) W-SW 247 1,5 C 3,3 C
09.01.2012 10:17 3,3 C 88 % 1025,0 hPa 0,0 l/m 2,5 km/h (1 Bft) W-SW 247 1,5 C 3,3 C
09.01.2012 10:22 3,3 C 88 % 1024,8 hPa 0,0 l/m 2,5 km/h (1 Bft) W-SW 247 1,5 C 3,3 C
09.01.2012 10:27 3,3 C 88 % 1024,9 hPa 0,0 l/m 5,0 km/h (1 Bft) SW 225 1,5 C 2,2 C
09.01.2012 10:32 3,4 C 88 % 1024,9 hPa 0,0 l/m 3,6 km/h (1 Bft) W-SW 247 1,6 C 3,4 C
09.01.2012 10:37 3,4 C 88 % 1024,7 hPa 0,0 l/m 2,5 km/h (1 Bft) W-SW 247 1,6 C 3,4 C
09.01.2012 10:42 3,4 C 88 % 1024,7 hPa 0,0 l/m 3,2 km/h (1 Bft) W-SW 247 1,6 C 3,4 C
09.01.2012 10:47 3,4 C 87 % 1024,6 hPa 0,0 l/m 2,2 km/h (1 Bft) S-SW 202 1,4 C 3,4 C
09.01.2012 10:52 3,5 C 87 % 1024,5 hPa 0,0 l/m 4,3 km/h (1 Bft) S-SW 202 1,5 C 3,5 C
09.01.2012 10:57 3,6 C 87 % 1024,5 hPa 0,0 l/m 3,2 km/h (1 Bft) S-SW 202 1,6 C 3,6 C
09.01.2012 11:02 3,6 C 87 % 1024,6 hPa 0,0 l/m 2,9 km/h (1 Bft) S-SW 202 1,6 C 3,6 C
09.01.2012 11:07 3,6 C 87 % 1024,5 hPa 0,0 l/m 3,2 km/h (1 Bft) S 180 1,6 C 3,6 C
09.01.2012 11:12 3,7 C 87 % 1024,4 hPa 0,0 l/m 2,9 km/h (1 Bft) S 180 1,7 C 3,7 C
09.01.2012 11:17 3,8 C 87 % 1024,4 hPa 0,0 l/m 3,2 km/h (1 Bft) SW 225 1,8 C 3,8 C
09.01.2012 11:22 3,8 C 87 % 1024,4 hPa 0,0 l/m 3,2 km/h (1 Bft) S-SW 202 1,8 C 3,8 C
09.01.2012 11:27 3,9 C 87 % 1024,4 hPa 0,0 l/m 2,5 km/h (1 Bft) W-SW 247 1,9 C 3,9 C
09.01.2012 11:32 4,0 C 87 % 1024,4 hPa 0,0 l/m 0,0 km/h (0 Bft) W-SW 247 2,0 C 4,0 C
09.01.2012 11:37 4,1 C 87 % 1024,4 hPa 0,0 l/m 8,3 km/h (2 Bft) W 270 2,1 C 2,0 C
09.01.2012 11:42 4,2 C 87 % 1024,3 hPa 0,0 l/m 6,5 km/h (2 Bft) SW 225 2,2 C 2,6 C
09.01.2012 11:47 4,3 C 86 % 1024,4 hPa 0,0 l/m 2,5 km/h (1 Bft) S-SW 202 2,2 C 4,3 C
09.01.2012 11:52 4,3 C 86 % 1024,2 hPa 0,0 l/m 5,4 km/h (1 Bft) SW 225 2,2 C 3,1 C
09.01.2012 11:57 4,3 C 86 % 1024,2 hPa 0,0 l/m 2,5 km/h (1 Bft) S-SW 202 2,2 C 4,3 C
09.01.2012 12:02 4,2 C 86 % 1024,1 hPa 0,0 l/m 4,3 km/h (1 Bft) S-SW 202 2,1 C 4,2 C
09.01.2012 12:07 4,2 C 86 % 1024,1 hPa 0,0 l/m 4,3 km/h (1 Bft) S-SW 202 2,1 C 4,2 C
09.01.2012 12:12 4,2 C 86 % 1024,1 hPa 0,0 l/m 1,4 km/h (1 Bft) S 180 2,1 C 4,2 C
09.01.2012 12:17 4,2 C 86 % 1024,2 hPa 0,0 l/m 2,9 km/h (1 Bft) S-SW 202 2,1 C 4,2 C
09.01.2012 12:22 4,2 C 87 % 1024,1 hPa 0,0 l/m 0,0 km/h (0 Bft) S-SO 157 2,2 C 4,2 C
09.01.2012 12:27 4,3 C 87 % 1024,1 hPa 0,0 l/m 6,8 km/h (2 Bft) S 180 2,3 C 2,7 C
09.01.2012 12:32 4,2 C 87 % 1023,9 hPa 0,0 l/m 6,5 km/h (2 Bft) S 180 2,2 C 2,6 C
09.01.2012 12:37 4,3 C 88 % 1024,0 hPa 0,0 l/m 1,4 km/h (1 Bft) S 180 2,5 C 4,3 C
09.01.2012 12:42 4,3 C 88 % 1023,7 hPa 0,0 l/m 4,0 km/h (1 Bft) S-SO 157 2,5 C 4,3 C
09.01.2012 12:47 4,3 C 88 % 1023,8 hPa 0,0 l/m 4,0 km/h (1 Bft) S-SO 157 2,5 C 4,3 C
09.01.2012 12:52 4,3 C 88 % 1023,7 hPa 0,0 l/m 3,2 km/h (1 Bft) S-SO 157 2,5 C 4,3 C
09.01.2012 12:57 4,4 C 88 % 1023,7 hPa 0,0 l/m 2,9 km/h (1 Bft) S 180 2,6 C 4,4 C
09.01.2012 13:02 4,4 C 88 % 1023,6 hPa 0,0 l/m 2,5 km/h (1 Bft) S 180 2,6 C 4,4 C
09.01.2012 13:07 4,4 C 88 % 1023,4 hPa 0,5 l/m 1,8 km/h (1 Bft) S 180 2,6 C 4,4 C
09.01.2012 13:12 4,4 C 89 % 1023,4 hPa 0,0 l/m 2,2 km/h (1 Bft) S-SO 157 2,7 C 4,4 C
09.01.2012 13:17 4,4 C 89 % 1023,4 hPa 0,0 l/m 4,7 km/h (1 Bft) S-SO 157 2,7 C 3,5 C
09.01.2012 13:22 4,5 C 89 % 1023,4 hPa 0,0 l/m 4,3 km/h (1 Bft) S-SO 157 2,8 C 4,5 C
09.01.2012 13:27 4,5 C 89 % 1023,4 hPa 0,0 l/m 5,0 km/h (1 Bft) S-SO 157 2,8 C 3,5 C
09.01.2012 13:32 4,6 C 89 % 1023,3 hPa 0,0 l/m 5,8 km/h (2 Bft) S 180 2,9 C 3,3 C
09.01.2012 13:37 4,6 C 89 % 1023,4 hPa 0,5 l/m 3,2 km/h (1 Bft) S 180 2,9 C 4,6 C
09.01.2012 13:42 4,6 C 90 % 1023,3 hPa 0,0 l/m 0,0 km/h (0 Bft) S 180 3,1 C 4,6 C
09.01.2012 13:47 4,7 C 90 % 1023,3 hPa 0,0 l/m 1,8 km/h (1 Bft) S-SW 202 3,2 C 4,7 C
09.01.2012 13:52 4,8 C 90 % 1023,3 hPa 0,0 l/m 0,0 km/h (0 Bft) S 180 3,3 C 4,8 C
09.01.2012 13:57 4,8 C 90 % 1023,3 hPa 0,0 l/m 2,2 km/h (1 Bft) S-SO 157 3,3 C 4,8 C
09.01.2012 14:02 4,8 C 90 % 1023,2 hPa 0,0 l/m 6,1 km/h (2 Bft) S-SW 202 3,3 C 3,5 C
09.01.2012 14:07 4,8 C 90 % 1023,1 hPa 0,0 l/m 5,0 km/h (1 Bft) S-SW 202 3,3 C 3,9 C
09.01.2012 14:12 4,8 C 90 % 1023,0 hPa 0,0 l/m 5,8 km/h (2 Bft) S-SW 202 3,3 C 3,6 C
09.01.2012 14:17 4,9 C 90 % 1022,9 hPa 0,0 l/m 7,2 km/h (2 Bft) S-SO 157 3,4 C 3,2 C
09.01.2012 14:22 4,9 C 90 % 1022,9 hPa 0,0 l/m 3,6 km/h (1 Bft) S 180 3,4 C 4,9 C
09.01.2012 14:27 4,9 C 90 % 1022,7 hPa 0,0 l/m 4,0 km/h (1 Bft) S-SW 202 3,4 C 4,9 C
09.01.2012 14:32 4,9 C 90 % 1022,6 hPa 0,0 l/m 5,4 km/h (1 Bft) S 180 3,4 C 3,8 C
09.01.2012 14:37 4,9 C 90 % 1022,6 hPa 0,5 l/m 4,3 km/h (1 Bft) S 180 3,4 C 4,9 C
09.01.2012 14:42 4,9 C 90 % 1022,5 hPa 0,0 l/m 7,6 km/h (2 Bft) S 180 3,4 C 3,1 C
09.01.2012 14:47 5,0 C 90 % 1022,4 hPa 0,0 l/m 7,6 km/h (2 Bft) S-SW 202 3,5 C 3,2 C
09.01.2012 14:52 5,0 C 90 % 1022,3 hPa 0,0 l/m 3,2 km/h (1 Bft) S-SW 202 3,5 C 5,0 C
09.01.2012 14:57 5,0 C 91 % 1022,2 hPa 0,0 l/m 4,7 km/h (1 Bft) S-SO 157 3,7 C 4,2 C
09.01.2012 15:02 5,0 C 91 % 1022,2 hPa 0,0 l/m 3,2 km/h (1 Bft) SW 225 3,7 C 5,0 C
09.01.2012 15:07 5,0 C 91 % 1022,2 hPa 0,5 l/m 5,8 km/h (2 Bft) S-SW 202 3,7 C 3,8 C
09.01.2012 15:12 5,1 C 91 % 1022,1 hPa 0,0 l/m 3,6 km/h (1 Bft) S 180 3,8 C 5,1 C
09.01.2012 15:17 5,0 C 91 % 1022,1 hPa 0,0 l/m 0,0 km/h (0 Bft) S-SW 202 3,7 C 5,0 C
09.01.2012 15:22 5,1 C 91 % 1022,1 hPa 0,0 l/m 2,5 km/h (1 Bft) S 180 3,8 C 5,1 C
09.01.2012 15:27 5,1 C 91 % 1022,0 hPa 0,0 l/m 1,8 km/h (1 Bft) S-SO 157 3,8 C 5,1 C
09.01.2012 15:32 5,1 C 91 % 1022,0 hPa 0,0 l/m 4,0 km/h (1 Bft) S-SO 157 3,8 C 5,1 C
09.01.2012 15:37 5,1 C 91 % 1022,0 hPa 0,0 l/m 3,2 km/h (1 Bft) S-SW 202 3,8 C 5,1 C
09.01.2012 15:42 5,1 C 91 % 1021,8 hPa 0,0 l/m 4,7 km/h (1 Bft) S-SW 202 3,8 C 4,3 C
09.01.2012 15:47 5,1 C 91 % 1021,9 hPa 0,0 l/m 3,6 km/h (1 Bft) S-SW 202 3,8 C 5,1 C
09.01.2012 15:52 5,1 C 91 % 1021,7 hPa 0,0 l/m 4,7 km/h (1 Bft) SW 225 3,8 C 4,3 C
09.01.2012 15:57 5,1 C 91 % 1021,9 hPa 0,0 l/m 16,6 km/h (3 Bft) S-SW 202 3,8 C 1,6 C
09.01.2012 16:02 5,1 C 91 % 1021,9 hPa 0,0 l/m 9,7 km/h (2 Bft) S-SW 202 3,8 C 2,8 C
09.01.2012 16:07 5,1 C 91 % 1021,9 hPa 0,0 l/m 18,4 km/h (3 Bft) SW 225 3,8 C 1,4 C
09.01.2012 16:12 5,1 C 91 % 1021,8 hPa 0,5 l/m 9,7 km/h (2 Bft) SW 225 3,8 C 2,8 C
09.01.2012 16:17 5,1 C 91 % 1021,8 hPa 0,0 l/m 5,0 km/h (1 Bft) W-SW 247 3,8 C 4,2 C
09.01.2012 16:22 5,1 C 91 % 1021,8 hPa 0,0 l/m 11,9 km/h (2 Bft) SW 225 3,8 C 2,4 C
09.01.2012 16:27 5,1 C 91 % 1021,7 hPa 0,0 l/m 6,5 km/h (2 Bft) S-SW 202 3,8 C 3,7 C
09.01.2012 16:32 5,1 C 92 % 1021,8 hPa 0,0 l/m 11,2 km/h (2 Bft) S-SW 202 3,9 C 2,5 C
09.01.2012 16:37 5,1 C 92 % 1021,8 hPa 0,0 l/m 9,4 km/h (2 Bft) SW 225 3,9 C 2,9 C
09.01.2012 16:42 5,1 C 92 % 1021,7 hPa 0,0 l/m 12,2 km/h (2 Bft) S 180 3,9 C 2,3 C
09.01.2012 16:47 5,1 C 92 % 1021,9 hPa 0,0 l/m 10,8 km/h (2 Bft) W-SW 247 3,9 C 2,6 C
09.01.2012 16:52 5,2 C 92 % 1021,7 hPa 0,0 l/m 10,1 km/h (2 Bft) W-SW 247 4,0 C 2,9 C
09.01.2012 16:57 5,2 C 92 % 1021,9 hPa 0,0 l/m 15,1 km/h (3 Bft) S-SW 202 4,0 C 2,0 C
09.01.2012 17:02 5,2 C 92 % 1021,8 hPa 0,0 l/m 8,3 km/h (2 Bft) SW 225 4,0 C 3,3 C
09.01.2012 17:07 5,2 C 92 % 1021,8 hPa 0,0 l/m 8,3 km/h (2 Bft) W-SW 247 4,0 C 3,3 C
09.01.2012 17:12 5,2 C 92 % 1021,7 hPa 0,0 l/m 5,8 km/h (2 Bft) SW 225 4,0 C 4,0 C
09.01.2012 17:17 5,3 C 92 % 1021,5 hPa 0,0 l/m 8,6 km/h (2 Bft) W-SW 247 4,1 C 3,3 C
09.01.2012 17:22 5,3 C 92 % 1021,6 hPa 0,0 l/m 7,9 km/h (2 Bft) SW 225 4,1 C 3,5 C
09.01.2012 17:27 5,3 C 92 % 1021,8 hPa 0,0 l/m 9,0 km/h (2 Bft) SW 225 4,1 C 3,2 C
09.01.2012 17:32 5,4 C 92 % 1021,7 hPa 0,0 l/m 11,2 km/h (2 Bft) W-SW 247 4,2 C 2,9 C
09.01.2012 17:37 5,4 C 92 % 1021,6 hPa 0,0 l/m 9,7 km/h (2 Bft) W-SW 247 4,2 C 3,2 C
09.01.2012 17:42 5,4 C 92 % 1021,6 hPa 0,0 l/m 6,8 km/h (2 Bft) W-SW 247 4,2 C 3,9 C
09.01.2012 17:47 5,5 C 92 % 1021,7 hPa 0,0 l/m 11,5 km/h (2 Bft) W 270 4,3 C 3,0 C
09.01.2012 17:52 5,5 C 93 % 1021,8 hPa 0,0 l/m 11,9 km/h (2 Bft) W-SW 247 4,5 C 2,9 C
09.01.2012 17:57 5,6 C 93 % 1021,7 hPa 0,0 l/m 10,8 km/h (2 Bft) W-SW 247 4,6 C 3,2 C
09.01.2012 18:02 5,6 C 93 % 1021,7 hPa 0,0 l/m 11,9 km/h (2 Bft) W-SW 247 4,6 C 3,0 C
09.01.2012 18:07 5,6 C 93 % 1021,6 hPa 0,0 l/m 8,6 km/h (2 Bft) W-NW 292 4,6 C 3,7 C
09.01.2012 18:12 5,6 C 93 % 1021,6 hPa 0,0 l/m 13,0 km/h (3 Bft) W 270 4,6 C 2,8 C
09.01.2012 18:17 5,8 C 93 % 1021,6 hPa 0,0 l/m 10,1 km/h (2 Bft) W-NW 292 4,8 C 3,6 C
09.01.2012 18:22 5,8 C 93 % 1021,6 hPa 0,0 l/m 9,4 km/h (2 Bft) W 270 4,8 C 3,7 C
09.01.2012 18:27 5,8 C 93 % 1021,7 hPa 0,0 l/m 9,4 km/h (2 Bft) W-SW 247 4,8 C 3,7 C
09.01.2012 18:32 5,9 C 93 % 1021,6 hPa 0,0 l/m 11,2 km/h (2 Bft) W-SW 247 4,9 C 3,5 C
09.01.2012 18:37 5,9 C 93 % 1021,6 hPa 0,0 l/m 16,6 km/h (3 Bft) W 270 4,9 C 2,6 C
09.01.2012 18:42 5,9 C 93 % 1021,5 hPa 0,0 l/m 10,8 km/h (2 Bft) W 270 4,9 C 3,6 C
09.01.2012 18:47 6,0 C 93 % 1021,5 hPa 0,0 l/m 8,3 km/h (2 Bft) W-SW 247 5,0 C 4,2 C
09.01.2012 18:52 6,1 C 93 % 1021,6 hPa 0,0 l/m 6,5 km/h (2 Bft) S-SW 202 5,1 C 4,8 C
09.01.2012 18:57 6,1 C 93 % 1021,4 hPa 0,0 l/m 12,6 km/h (3 Bft) SW 225 5,1 C 3,5 C
09.01.2012 19:02 6,1 C 93 % 1021,5 hPa 0,0 l/m 11,2 km/h (2 Bft) W 270 5,1 C 3,7 C
09.01.2012 19:07 6,2 C 93 % 1021,3 hPa 0,0 l/m 13,7 km/h (3 Bft) W-SW 247 5,2 C 3,4 C
09.01.2012 19:12 6,3 C 93 % 1021,4 hPa 0,0 l/m 13,0 km/h (3 Bft) W-SW 247 5,3 C 3,7 C
09.01.2012 19:17 6,3 C 93 % 1021,2 hPa 0,0 l/m 7,2 km/h (2 Bft) W 270 5,3 C 4,9 C
09.01.2012 19:22 6,4 C 93 % 1021,3 hPa 0,0 l/m 3,6 km/h (1 Bft) W-SW 247 5,4 C 6,4 C
09.01.2012 19:27 6,4 C 93 % 1021,2 hPa 0,0 l/m 5,4 km/h (1 Bft) W-SW 247 5,4 C 5,5 C
09.01.2012 19:32 6,4 C 93 % 1021,3 hPa 0,0 l/m 14,4 km/h (3 Bft) W-SW 247 5,4 C 3,6 C
09.01.2012 19:37 6,4 C 93 % 1021,0 hPa 0,0 l/m 5,8 km/h (2 Bft) W 270 5,4 C 5,4 C
09.01.2012 19:42 6,4 C 93 % 1021,1 hPa 0,0 l/m 17,3 km/h (3 Bft) W-SW 247 5,4 C 3,2 C
09.01.2012 19:47 6,5 C 93 % 1021,0 hPa 0,0 l/m 14,4 km/h (3 Bft) W-SW 247 5,5 C 3,7 C
09.01.2012 19:52 6,6 C 93 % 1021,0 hPa 0,0 l/m 11,2 km/h (2 Bft) W-SW 247 5,6 C 4,3 C
09.01.2012 19:57 6,6 C 93 % 1021,0 hPa 0,0 l/m 11,5 km/h (2 Bft) W-SW 247 5,6 C 4,3 C
09.01.2012 20:02 6,6 C 93 % 1021,0 hPa 0,0 l/m 22,7 km/h (4 Bft) W-NW 292 5,6 C 2,8 C
09.01.2012 20:07 6,7 C 93 % 1021,0 hPa 0,0 l/m 21,6 km/h (4 Bft) W-SW 247 5,6 C 3,0 C
09.01.2012 20:12 6,8 C 93 % 1021,0 hPa 0,0 l/m 10,8 km/h (2 Bft) W 270 5,7 C 4,7 C
09.01.2012 20:17 6,8 C 93 % 1020,9 hPa 0,0 l/m 10,4 km/h (2 Bft) W 270 5,7 C 4,7 C
09.01.2012 20:22 6,8 C 93 % 1020,9 hPa 0,0 l/m 6,8 km/h (2 Bft) W 270 5,7 C 5,6 C
09.01.2012 20:27 6,8 C 93 % 1021,0 hPa 0,0 l/m 8,3 km/h (2 Bft) W-SW 247 5,7 C 5,2 C
09.01.2012 20:32 6,8 C 93 % 1021,0 hPa 0,0 l/m 8,6 km/h (2 Bft) SW 225 5,7 C 5,1 C
09.01.2012 20:37 6,8 C 93 % 1021,0 hPa 0,0 l/m 10,1 km/h (2 Bft) W-NW 292 5,7 C 4,8 C
09.01.2012 20:42 6,9 C 93 % 1021,1 hPa 0,0 l/m 14,4 km/h (3 Bft) W-SW 247 5,8 C 4,2 C
09.01.2012 20:47 6,9 C 93 % 1021,0 hPa 0,0 l/m 9,7 km/h (2 Bft) W-NW 292 5,8 C 5,0 C
09.01.2012 20:52 6,9 C 93 % 1020,7 hPa 0,0 l/m 8,3 km/h (2 Bft) W-SW 247 5,8 C 5,3 C
09.01.2012 20:57 6,9 C 93 % 1020,8 hPa 0,0 l/m 8,3 km/h (2 Bft) W 270 5,8 C 5,3 C
09.01.2012 21:02 7,0 C 93 % 1020,9 hPa 0,0 l/m 20,5 km/h (4 Bft) W-SW 247 5,9 C 3,5 C
09.01.2012 21:07 7,0 C 93 % 1021,0 hPa 0,0 l/m 20,9 km/h (4 Bft) W 270 5,9 C 3,5 C
09.01.2012 21:12 7,0 C 93 % 1020,7 hPa 0,0 l/m 8,3 km/h (2 Bft) W 270 5,9 C 5,4 C
09.01.2012 21:17 7,1 C 93 % 1020,8 hPa 0,0 l/m 14,4 km/h (3 Bft) W-SW 247 6,0 C 4,4 C
09.01.2012 21:22 7,1 C 93 % 1020,6 hPa 0,0 l/m 10,8 km/h (2 Bft) W-SW 247 6,0 C 5,0 C
09.01.2012 21:27 7,1 C 93 % 1020,7 hPa 0,0 l/m 21,2 km/h (4 Bft) W-SW 247 6,0 C 3,6 C
09.01.2012 21:32 7,1 C 93 % 1020,6 hPa 0,0 l/m 7,9 km/h (2 Bft) W-SW 247 6,0 C 5,6 C
09.01.2012 21:37 7,1 C 93 % 1020,5 hPa 0,0 l/m 12,2 km/h (2 Bft) W 270 6,0 C 4,8 C
09.01.2012 21:42 7,1 C 93 % 1020,6 hPa 0,0 l/m 4,3 km/h (1 Bft) SW 225 6,0 C 7,1 C
09.01.2012 21:47 7,1 C 93 % 1020,8 hPa 0,0 l/m 14,8 km/h (3 Bft) W-SW 247 6,0 C 4,4 C
09.01.2012 21:52 7,1 C 92 % 1020,5 hPa 0,0 l/m 11,5 km/h (2 Bft) W-NW 292 5,9 C 4,9 C
09.01.2012 21:57 7,2 C 92 % 1020,5 hPa 0,0 l/m 12,2 km/h (2 Bft) W 270 6,0 C 4,9 C
09.01.2012 22:02 7,2 C 92 % 1020,6 hPa 0,0 l/m 16,9 km/h (3 Bft) W-NW 292 6,0 C 4,2 C
09.01.2012 22:07 7,2 C 92 % 1020,4 hPa 0,0 l/m 15,5 km/h (3 Bft) W 270 6,0 C 4,4 C
09.01.2012 22:12 7,2 C 92 % 1020,5 hPa 0,0 l/m 7,2 km/h (2 Bft) W-SW 247 6,0 C 5,9 C
09.01.2012 22:17 7,2 C 92 % 1020,4 hPa 0,0 l/m 16,6 km/h (3 Bft) W-SW 247 6,0 C 4,2 C
09.01.2012 22:22 7,2 C 92 % 1020,5 hPa 0,5 l/m 9,7 km/h (2 Bft) W-SW 247 6,0 C 5,3 C
09.01.2012 22:27 7,2 C 92 % 1020,5 hPa 0,0 l/m 8,6 km/h (2 Bft) W 270 6,0 C 5,6 C
09.01.2012 22:32 7,2 C 92 % 1020,4 hPa 0,0 l/m 13,0 km/h (3 Bft) W-NW 292 6,0 C 4,8 C
09.01.2012 22:37 7,2 C 93 % 1020,5 hPa 0,0 l/m 5,4 km/h (1 Bft) W 270 6,1 C 6,4 C
09.01.2012 22:42 7,2 C 93 % 1020,7 hPa 0,0 l/m 16,6 km/h (3 Bft) W 270 6,1 C 4,2 C
09.01.2012 22:47 7,2 C 93 % 1020,5 hPa 0,0 l/m 18,4 km/h (3 Bft) W 270 6,1 C 4,0 C
09.01.2012 22:52 7,2 C 93 % 1020,7 hPa 0,0 l/m 8,6 km/h (2 Bft) W 270 6,1 C 5,6 C
09.01.2012 22:57 7,2 C 93 % 1020,8 hPa 0,0 l/m 12,6 km/h (3 Bft) W-NW 292 6,1 C 4,8 C
09.01.2012 23:02 7,2 C 93 % 1020,6 hPa 0,0 l/m 7,2 km/h (2 Bft) W 270 6,1 C 5,9 C
09.01.2012 23:07 7,2 C 93 % 1020,4 hPa 0,0 l/m 14,4 km/h (3 Bft) W-NW 292 6,1 C 4,5 C
09.01.2012 23:12 7,2 C 92 % 1020,6 hPa 0,0 l/m 15,8 km/h (3 Bft) W-SW 247 6,0 C 4,4 C
09.01.2012 23:17 7,2 C 92 % 1020,8 hPa 0,0 l/m 17,3 km/h (3 Bft) W-NW 292 6,0 C 4,2 C
09.01.2012 23:22 7,2 C 92 % 1020,9 hPa 0,0 l/m 15,5 km/h (3 Bft) W-NW 292 6,0 C 4,4 C
09.01.2012 23:27 7,2 C 92 % 1021,1 hPa 0,0 l/m 23,4 km/h (4 Bft) W-NW 292 6,0 C 3,5 C
09.01.2012 23:32 7,3 C 92 % 1021,2 hPa 0,0 l/m 13,3 km/h (3 Bft) W 270 6,1 C 4,8 C
09.01.2012 23:37 7,3 C 92 % 1021,1 hPa 0,0 l/m 14,4 km/h (3 Bft) W 270 6,1 C 4,7 C
09.01.2012 23:42 7,3 C 92 % 1021,0 hPa 0,0 l/m 19,1 km/h (3 Bft) W 270 6,1 C 4,1 C
09.01.2012 23:47 7,3 C 92 % 1021,2 hPa 0,0 l/m 13,7 km/h (3 Bft) W-NW 292 6,1 C 4,8 C
09.01.2012 23:52 7,3 C 92 % 1021,1 hPa 0,0 l/m 12,2 km/h (2 Bft) W 270 6,1 C 5,0 C
09.01.2012 23:57 7,2 C 92 % 1021,3 hPa 0,0 l/m 19,8 km/h (3 Bft) W 270 6,0 C 3,9 C
_ Min-Zeit 08:17 01:22 22:07 - 00:32 - - 08:17 04:17
Minimum _ 2,8 C 85 % 1020,4 hPa - 0,0 km/h (0 Bft) - - 1,0 C 0,5 C
_ Max-Zeit 23:32 17:52 10:07 13:07 23:27 - - 22:37 21:42
Maximum _ 7,3 C 93 % 1025,0 hPa 0,5 l/m 23,4 km/h
W-NW (4 Bft)
- - 6,1 C 7,1 C
Durchschnitt _ 4,6 C 89 % 1022,6 hPa #3,1 l/m 6,2 km/h (2 Bft) W-SW - 3,0 C 3,6 C
(c) by David Heller